Vertical_Velocity
1 1 -0 -2 1 -1 0 3 -0 1 1 2 -1 1 -1 -0 -1 3 1 -1 -0 -1 -0 1 1 2 1 -3 -3 -4 1 -4 -5 13 -3 -1 1 3 1 -0 -2 5 1
3 -2 -3 -0 -1 2 1 0 -2 -1 -3 0 2 0 1 -0 0 -2 -0 -2 -1 -0 2 -1 0 -0 -0 3 -2 -3 -3 -2 -5 -4 -3 -0 1 2 0 2 7 0 4
-1 -2 -0 2 5 3 2 2 0 2 1 -1 -1 -0 1 -1 -0 2 2 -1 -1 -0 -0 -0 1 -0 2 2 1 1 -2 2 1 -3 1 -0 -2 -2 -0 -4 -3 4 2
-3 5 3 3 1 0 -1 -1 -2 0 1 2 1 -1 -1 -1 -1 -3 -2 -0 -0 1 2 1 -0 -2 -1 2 1 0 0 -1 4 -1 -3 -5 -4 1 -4 1 1 -2 -1
3 -2 0 -0 -3 -2 0 2 3 2 1 0 1 3 2 -1 -1 0 0 1 0 1 1 -1 0 0 1 1 2 2 -1 -1 -1 3 0 -3 -3 -4 -2 -1 -5 -2 -3
-2 -4 -4 -1 -3 -1 0 -0 2 3 1 0 1 0 -0 -2 -1 1 1 1 1 2 1 0 -0 -1 -1 -3 -2 0 2 0 -1 -3 1 -1 2 -2 1 -2 -5 -5 -10
-2 -2 -1 -4 1 3 -3 -2 -2 -0 0 0 0 2 1 0 -0 -1 -2 -1 -0 2 3 3 1 -0 1 -0 0 -0 1 1 0 -1 -1 0 -2 5 8 2 -2 -5 -3
8 0 -2 -4 -4 -2 -1 -2 -1 1 0 -0 -2 -1 1 -0 -2 -2 -0 1 1 0 1 2 2 4 3 1 2 3 2 -0 -1 -2 -3 1 -4 -1 -4 -0 8 2 -5
1 -2 1 -1 -3 -1 -3 1 1 -0 2 2 0 -2 -0 -1 -5 -1 -1 -2 -2 2 1 0 1 1 -1 -5 0 1 3 4 2 2 1 3 1 -1 1 -2 3 -0 -0
2 -2 -1 1 -3 -1 -1 -1 1 2 1 -1 0 -0 -1 -3 -1 -0 -2 -1 -0 -0 -1 -3 -2 0 4 1 3 3 3 4 1 3 4 -2 -1 4 5 -3 1 -4 -1
4 2 1 -0 1 1 2 -0 1 -2 -2 -1 -0 -1 -1 -0 -1 0 -2 -1 -1 1 -1 4 -1 -0 -0 0 -1 2 -0 -1 1 -0 1 2 2 1 -1 2 1 -2 -5
-2 1 1 1 -2 1 0 -2 -3 2 -3 -0 0 -0 -1 0 -1 -2 -2 -3 -1 1 1 1 -1 1 1 2 0 0 -2 -0 2 -0 0 1 1 2 2 1 -1 -4 -1
-1 -1 -2 -1 -0 1 -4 -2 -1 -1 -2 -2 -2 -1 -0 -3 -2 -3 -1 -1 -1 -1 -2 -2 1 -0 1 1 -2 -2 -2 -2 -3 -2 -0 2 -1 -2 1 1 -0 -0 -2
-3 -4 1 -4 -2 0 1 -1 2 -1 -1 -3 -2 -1 -2 -0 -2 -2 -3 -1 -2 -1 0 -2 -1 0 -2 -1 0 -0 2 1 -0 -0 -3 -2 -1 -1 -1 -3 -3 0 -8
-2 -2 -2 -2 3 3 1 -4 1 -1 -1 -1 -1 0 -0 -1 -2 -1 1 0 0 -1 -2 -2 -2 -1 -3 -4 -2 -1 -1 -1 1 -2 -0 -1 0 -3 -1 -0 -0 -2 -6
-2 -1 0 -2 1 1 -1 -4 -2 1 1 -0 0 -1 -1 1 -0 -1 -3 -1 -2 -1 -1 1 -1 -2 -0 0 -1 1 -1 0 2 2 2 2 0 -1 -2 -2 -2 -1 -3
5 1 -4 0 -3 -2 -2 -3 1 -0 -1 0 -1 1 -2 -3 -3 -1 -2 -2 -2 -1 -0 -1 -2 -0 0 -0 -1 -1 1 -0 -1 1 1 1 1 1 1 2 -0 -0 -1
-3 -3 -3 -2 -3 -2 0 -0 -2 1 1 -1 5 -0 -1 -3 1 -1 -1 -1 -3 -2 -1 -1 -3 -0 -2 -3 -2 -2 -1 -1 -1 -1 1 -1 -0 -0 1 -0 -1 -0 -2
-2 -2 -1 -4 -5 0 2 1 -0 2 0 -1 -2 2 -3 1 -2 -1 0 -1 -0 1 -0 -2 -0 -1 -2 -3 -2 -3 -2 -1 -1 0 1 -2 0 3 0 -1 -3 -1 -1
0 -2 -2 -4 -0 1 -1 -0 0 -1 -1 -2 -3 1 1 -1 -1 -1 0 -1 0 2 1 0 -1 -1 -2 -1 -1 -2 -2 -1 1 -1 -2 1 1 -1 -3 1 1 -2 1
-5 -5 -2 8 2 -3 1 -1 -1 1 -1 -1 -1 0 -1 1 -1 -2 2 1 1 1 -1 0 -1 0 -2 -0 -1 -2 -1 0 -1 -4 -3 -1 -3 0 1 -1 2 -0 -3
-6 1 -0 -1 1 3 -1 -3 -2 -4 0 1 0 1 -0 1 2 1 3 2 -0 -1 -0 -1 -1 -1 -1 -1 -1 0 0 -0 -1 -2 -1 -2 -1 2 -0 -1 -0 0 -3
-1 0 -5 4 -3 2 0 -4 -4 -4 -2 -1 1 0 -1 2 -0 -0 -4 -3 0 2 1 -0 -2 -2 -3 -2 -2 -1 0 -0 -5 -1 -0 -1 1 0 -3 -4 -5 -2 -5
-0 -2 -4 4 -0 0 -0 -1 -2 -0 -0 -0 -0 1 -1 3 -1 3 0 -0 -1 -2 -2 1 -0 0 -2 -2 -2 -3 -5 -3 -0 -0 -1 -1 -1 -2 -1 -3 -3 -2 -7
-6 -6 1 4 -0 2 -2 -7 -3 -1 -2 -1 0 3 3 0 0 -0 -2 1 -0 1 -1 -2 0 -0 -2 -2 -2 -2 -3 -3 -1 -3 -1 -2 0 -4 -2 -2 -1 -2 -0
1 -0 -1 4 -1 -2 1 -1 -1 2 -0 -1 -3 1 2 3 -0 -1 -2 2 -1 -2 -2 -1 -2 0 -1 -0 -0 0 -2 0 -1 -3 -3 -2 -1 -1 -0 -1 -0 -1 1
Height
3188 3188 3186 3186 3186 3185 3184 3183 3183 3183 3184 3184 3184 3184 3184 3183 3183 3183 3184 3184 3185 3185 3185 3186 3188 3189 3189 3190 3190 3189 3189 3188 3188 3189 3188 3189 3190 3189 3188 3188 3186 3183 3187
3189 3187 3186 3186 3185 3183 3182 3181 3179 3179 3179 3180 3180 3180 3181 3180 3180 3180 3180 3181 3182 3182 3182 3182 3184 3184 3185 3186 3185 3184 3183 3183 3182 3183 3183 3184 3184 3184 3184 3184 3184 3183 3184
3185 3186 3187 3186 3185 3184 3182 3180 3178 3177 3176 3176 3176 3176 3176 3176 3177 3176 3176 3176 3178 3179 3178 3178 3179 3180 3181 3181 3182 3181 3180 3178 3177 3176 3177 3178 3178 3178 3178 3179 3179 3179 3179
3185 3186 3186 3185 3183 3182 3181 3179 3176 3174 3172 3171 3171 3171 3171 3170 3170 3170 3171 3172 3173 3173 3173 3173 3174 3175 3176 3175 3176 3176 3175 3174 3173 3172 3171 3172 3172 3173 3172 3173 3173 3173 3173
3183 3183 3183 3183 3181 3180 3179 3177 3174 3171 3169 3168 3167 3166 3165 3164 3164 3164 3164 3165 3166 3167 3167 3167 3168 3168 3169 3170 3169 3170 3170 3169 3168 3166 3165 3166 3166 3166 3167 3167 3165 3165 3164
3178 3180 3180 3179 3178 3177 3175 3173 3171 3168 3166 3164 3162 3161 3160 3159 3158 3158 3159 3159 3159 3160 3160 3159 3160 3161 3161 3162 3162 3161 3162 3161 3161 3160 3160 3159 3161 3161 3160 3159 3158 3157 3157
3174 3175 3175 3174 3174 3173 3171 3169 3166 3164 3161 3160 3158 3157 3155 3153 3152 3151 3152 3152 3153 3152 3152 3152 3151 3151 3150 3151 3152 3151 3151 3151 3150 3151 3150 3152 3151 3152 3151 3150 3150 3149 3149
3172 3171 3170 3170 3170 3168 3166 3164 3162 3159 3157 3154 3152 3150 3149 3147 3146 3145 3145 3145 3145 3145 3143 3142 3142 3142 3142 3141 3141 3140 3141 3141 3141 3140 3140 3140 3141 3142 3141 3141 3140 3139 3140
3167 3167 3166 3164 3164 3162 3160 3158 3156 3153 3151 3149 3147 3145 3142 3140 3139 3139 3140 3139 3138 3137 3136 3135 3134 3133 3132 3131 3130 3131 3131 3131 3130 3130 3129 3129 3130 3131 3132 3131 3131 3131 3129
3162 3162 3162 3160 3159 3157 3155 3153 3150 3147 3145 3143 3141 3138 3136 3135 3134 3134 3134 3133 3132 3130 3129 3128 3126 3125 3124 3123 3122 3121 3121 3120 3119 3119 3119 3119 3119 3120 3121 3120 3120 3119 3118
3159 3158 3157 3155 3153 3151 3148 3145 3143 3141 3138 3137 3134 3132 3130 3129 3127 3126 3125 3124 3123 3122 3121 3120 3118 3116 3114 3114 3112 3111 3109 3108 3108 3107 3107 3107 3108 3107 3108 3108 3108 3107 3105
3153 3152 3151 3148 3147 3144 3141 3139 3137 3136 3134 3132 3130 3127 3126 3124 3121 3119 3117 3115 3113 3113 3113 3111 3110 3107 3106 3104 3103 3101 3100 3098 3098 3097 3096 3096 3096 3096 3096 3094 3094 3094 3093
3148 3147 3144 3142 3140 3138 3135 3134 3132 3130 3128 3127 3125 3123 3121 3118 3115 3112 3110 3108 3106 3105 3103 3102 3101 3100 3098 3097 3094 3093 3092 3090 3088 3086 3086 3085 3085 3084 3083 3083 3082 3082 3080
3141 3140 3139 3137 3134 3132 3130 3129 3127 3125 3124 3123 3122 3120 3116 3113 3110 3108 3105 3103 3100 3098 3096 3094 3093 3092 3090 3088 3087 3085 3083 3081 3079 3077 3076 3076 3075 3074 3073 3072 3070 3070 3067
3135 3134 3132 3131 3128 3126 3124 3122 3122 3121 3119 3117 3115 3113 3111 3108 3106 3103 3101 3099 3096 3093 3090 3087 3084 3082 3080 3078 3076 3075 3073 3071 3069 3067 3065 3065 3065 3064 3064 3062 3060 3059 3057
3129 3127 3126 3125 3123 3120 3118 3116 3116 3116 3114 3112 3110 3107 3105 3102 3100 3097 3094 3091 3089 3086 3084 3080 3077 3075 3072 3070 3068 3066 3064 3062 3059 3058 3056 3055 3054 3053 3052 3052 3051 3049 3047
3122 3120 3119 3119 3116 3115 3112 3110 3110 3108 3108 3106 3103 3100 3098 3096 3093 3090 3088 3085 3082 3080 3077 3074 3071 3068 3065 3062 3059 3057 3056 3053 3050 3048 3046 3045 3043 3042 3041 3041 3040 3038 3037
3115 3114 3113 3112 3110 3110 3108 3105 3103 3103 3100 3100 3097 3094 3093 3090 3088 3085 3082 3079 3076 3073 3071 3068 3065 3062 3059 3055 3052 3049 3047 3045 3042 3040 3038 3035 3033 3031 3030 3029 3028 3027 3026
3110 3109 3106 3105 3105 3104 3102 3099 3097 3096 3095 3094 3092 3090 3088 3084 3082 3080 3077 3074 3072 3069 3066 3063 3060 3057 3054 3050 3048 3044 3041 3038 3035 3033 3031 3028 3025 3022 3022 3019 3018 3016 3015
3103 3102 3101 3099 3098 3097 3096 3093 3092 3091 3090 3089 3086 3084 3082 3080 3077 3076 3073 3070 3067 3065 3062 3059 3057 3054 3051 3048 3044 3041 3037 3034 3029 3026 3023 3020 3017 3014 3012 3011 3009 3007 3006
3097 3096 3096 3095 3093 3091 3090 3089 3088 3086 3085 3084 3082 3080 3078 3076 3073 3071 3069 3067 3064 3061 3059 3056 3054 3051 3048 3044 3041 3038 3034 3030 3026 3022 3017 3013 3010 3007 3004 3002 3000 2999 2998
3091 3092 3092 3091 3088 3087 3086 3085 3084 3082 3080 3079 3076 3074 3073 3072 3069 3066 3064 3062 3060 3058 3055 3053 3050 3048 3045 3041 3038 3034 3030 3027 3023 3018 3014 3010 3006 3001 2996 2993 2991 2989 2988
3087 3088 3088 3087 3085 3083 3081 3080 3079 3077 3075 3074 3072 3070 3068 3067 3064 3062 3060 3058 3056 3053 3052 3050 3047 3044 3040 3037 3034 3031 3027 3023 3019 3015 3011 3006 3001 2996 2991 2987 2984 2981 2980
3083 3083 3083 3083 3080 3079 3077 3076 3074 3073 3071 3069 3068 3066 3064 3062 3060 3058 3057 3055 3053 3051 3048 3045 3042 3039 3036 3033 3029 3026 3022 3019 3015 3010 3007 3002 2998 2993 2989 2984 2981 2977 2974
3079 3078 3079 3078 3076 3075 3073 3072 3070 3069 3066 3064 3063 3062 3059 3057 3055 3053 3052 3049 3047 3045 3043 3041 3038 3035 3031 3028 3025 3021 3017 3013 3010 3007 3002 2998 2993 2989 2985 2981 2977 2973 2969
3077 3075 3075 3073 3072 3071 3070 3069 3067 3065 3064 3061 3059 3057 3055 3053 3051 3049 3047 3046 3043 3041 3038 3036 3033 3030 3027 3024 3021 3017 3013 3009 3005 3001 2998 2994 2990 2986 2982 2977 2973 2969 2966